Weather History for Clarksburg, WV

Change the Weather History Date:

Tuesday, January 15, 2013

  Actual Average Record
Temperature  
Mean Temperature 32 °F -  
Max Temperature 35 °F 38 °F 74 °F (1932)
Min Temperature 30 °F 19 °F -5 °F (1948)
Degree Days  
Heating Degree Days 32    
Moisture  
Dew Point 29 °F    
Average Humidity 85    
Maximum Humidity 96    
Minimum Humidity 75    
Precipitation  
Precipitation 0.23 in - - ()
Sea Level Pressure  
Sea Level Pressure 30.18 in    
Wind  
Wind Speed 7 mph (NNE)    
Max Wind Speed 13 mph    
Max Gust Speed -    
Visibility 7 miles    
Events Rain    
Averages and records for this station are not official NWS values.
T = Trace of Precipitation, MM = Missing Value Source: NWS Daily Summary

Daily Weather History Graph

Daily Weather History Graph

Search for Another Location

Airport:

Trip Planner

Search our weather history database for the weather conditions in past years. The results will help you decide how hot, cold, wet, or windy it might be!

Date:

Astronomy

Jan. 15, 2013 Rise Set
Actual Time 7:38 AM EST 5:22 PM EST
Civil Twilight 7:09 AM EST 5:51 PM EST
Nautical Twilight 6:36 AM EST 6:24 PM EST
Astronomical Twilight 6:04 AM EST 6:56 PM EST
Moon 9:45 AM EST (1/15) 10:08 PM EST (1/15)
Length of Visible Light 10h 42m
Length of Day
9h 43m
Waxing Crescent, 19% of the Moon is Illuminated
Jan 15
Waxing Crescent
Jan 18
First Quarter
Jan 26
Full
Feb 3
Last Quarter
Feb 10
New

Hourly Weather History & Observations

Time (EST) Temp. Windchill Dew Point Humidity Pressure Visibility Wind Dir Wind Speed Gust Speed Precip Events Conditions
12:08 AM 33.8 °F 27.7 °F 32.0 °F 93% 30.25 in 8.0 mi North 6.9 mph - 0.01 in   Overcast
12:34 AM 35.6 °F 30.7 °F 32.0 °F 87% 30.22 in 10.0 mi NE 5.8 mph - 0.02 in   Overcast
12:50 AM 33.8 °F 28.6 °F 32.0 °F 93% 30.22 in 10.0 mi NNE 5.8 mph - 0.02 in   Mostly Cloudy
12:53 AM 34.0 °F 28.8 °F 32.0 °F 92% 30.24 in 10.0 mi NNE 5.8 mph - 0.02 in   Mostly Cloudy
1:53 AM 35.1 °F 32.2 °F 32.0 °F 89% 30.24 in 10.0 mi NNW 3.5 mph - 0.01 in   Overcast
2:53 AM 34.0 °F 28.8 °F 30.0 °F 85% 30.25 in 10.0 mi NNE 5.8 mph - N/A   Overcast
3:53 AM 34.0 °F 28.8 °F 28.9 °F 82% 30.26 in 10.0 mi NNE 5.8 mph - N/A   Overcast
4:53 AM 33.1 °F 26.1 °F 28.0 °F 82% 30.26 in 10.0 mi NNE 8.1 mph - N/A   Overcast
5:41 AM 33.8 °F 26.4 °F 26.6 °F 75% 30.25 in 10.0 mi North 9.2 mph - N/A   Overcast
6:39 AM 32.0 °F 24.2 °F 26.6 °F 80% 30.27 in 10.0 mi North 9.2 mph - N/A   Overcast
6:53 AM 32.0 °F 24.2 °F 26.1 °F 79% 30.29 in 10.0 mi North 9.2 mph - N/A   Overcast
7:53 AM 30.9 °F 23.5 °F 25.0 °F 79% 30.30 in 10.0 mi NNE 8.1 mph - N/A   Overcast
8:53 AM 32.0 °F 25.6 °F 25.0 °F 75% 30.34 in 10.0 mi NNE 6.9 mph - N/A   Overcast
9:53 AM 32.0 °F 25.6 °F 26.1 °F 79% 30.34 in 10.0 mi NNE 6.9 mph - N/A   Overcast
10:53 AM 33.1 °F 26.1 °F 27.0 °F 78% 30.32 in 9.0 mi NNE 8.1 mph - N/A   Overcast
11:53 AM 34.0 °F 27.2 °F 27.0 °F 75% 30.27 in 10.0 mi NNE 8.1 mph - N/A   Overcast
12:53 PM 33.1 °F 24.9 °F 27.0 °F 78% 30.23 in 9.0 mi North 10.4 mph - N/A   Overcast
1:34 PM 33.8 °F 26.4 °F 26.6 °F 75% 30.20 in 10.0 mi NNE 9.2 mph - N/A   Overcast
1:53 PM 34.0 °F 25.0 °F 27.0 °F 75% 30.21 in 10.0 mi North 12.7 mph - N/A   Overcast
2:53 PM 33.1 °F 25.5 °F 27.0 °F 78% 30.19 in 10.0 mi NNE 9.2 mph - N/A   Overcast
3:53 PM 34.0 °F 26.6 °F 27.0 °F 75% 30.19 in 9.0 mi North 9.2 mph - N/A   Overcast
4:53 PM 34.0 °F 26.0 °F 27.0 °F 75% 30.17 in 9.0 mi NNE 10.4 mph - N/A   Overcast
5:53 PM 34.0 °F 25.5 °F 27.0 °F 75% 30.18 in 10.0 mi NNE 11.5 mph - N/A   Overcast
6:41 PM 33.8 °F 25.3 °F 28.4 °F 81% 30.17 in 6.0 mi North 11.5 mph - 0.00 in Rain Light Rain
6:53 PM 32.0 °F 23.0 °F 28.0 °F 85% 30.19 in 5.0 mi North 11.5 mph - 0.01 in Rain Rain
7:18 PM 32.0 °F 23.6 °F 28.4 °F 87% 30.18 in 4.0 mi North 10.4 mph - 0.02 in   Overcast
7:35 PM 32.0 °F 24.8 °F 28.4 °F 87% 30.16 in 4.0 mi North 8.1 mph - 0.04 in   Overcast
7:45 PM 32.0 °F 23.6 °F 28.4 °F 87% 30.16 in 5.0 mi North 10.4 mph - 0.04 in   Overcast
7:53 PM 32.0 °F 23.0 °F 28.9 °F 88% 30.18 in 5.0 mi North 11.5 mph - 0.05 in   Overcast
8:08 PM 32.0 °F 24.2 °F 28.4 °F 87% 30.15 in 4.0 mi NNE 9.2 mph - 0.01 in Rain Light Freezing Rain
8:32 PM 32.0 °F 24.2 °F 28.4 °F 87% 30.13 in 5.0 mi NNE 9.2 mph - 0.03 in Rain Light Freezing Rain
8:42 PM 32.0 °F 24.2 °F 28.4 °F 87% 30.12 in 4.0 mi NE 9.2 mph - 0.04 in Rain Light Freezing Rain
8:53 PM 32.0 °F 24.8 °F 30.0 °F 92% 30.13 in 4.0 mi NNE 8.1 mph - 0.04 in Rain Light Freezing Rain
9:09 PM 32.0 °F 27.5 °F 30.2 °F 93% 30.11 in 4.0 mi NNE 4.6 mph - 0.01 in Rain Light Freezing Rain
9:37 PM 32.0 °F 26.4 °F 30.2 °F 93% 30.08 in 3.0 mi NNE 5.8 mph - 0.04 in   Overcast
9:53 PM 32.0 °F 27.5 °F 30.9 °F 96% 30.08 in 4.0 mi NNE 4.6 mph - 0.05 in   Overcast
10:11 PM 32.0 °F 27.5 °F 30.2 °F 93% 30.05 in 4.0 mi NNW 4.6 mph - 0.01 in Rain Light Freezing Rain
10:53 PM 33.1 °F 27.7 °F 30.9 °F 92% 30.06 in 3.0 mi North 5.8 mph - 0.05 in Rain Light Freezing Rain
11:02 PM 33.8 °F 28.6 °F 30.2 °F 87% 30.04 in 3.0 mi North 5.8 mph - N/A Rain Rain
11:09 PM 33.8 °F 30.8 °F 30.2 °F 87% 30.04 in 3.0 mi NNE 3.5 mph - N/A Rain Rain
11:22 PM 33.8 °F 27.7 °F 30.2 °F 87% 30.05 in 3.0 mi NNW 6.9 mph - N/A Rain Rain
11:53 PM 33.1 °F - 32.0 °F 96% 30.03 in 3.0 mi Calm Calm - N/A Rain Rain
11:58 PM 33.8 °F - 32.0 °F 93% 30.02 in 3.0 mi Calm Calm - 0.01 in Rain Rain